Voltar ao catálogo

CZ-4C DEB

AtivoPO
NORAD 38296·DEBRIS·🇨🇳 China

Lançado Nov 4, 2010 de Taiyuan Satellite Launch Center

Loading…

Próximas Passagens (próximas 24 horas)

TLE

EnvelhecendoSource: Space-Track

Época: Sep 9, 2026, 22:44 UTC

1 38296U 10059F   26252.94774713  .00000210  00000-0  20199-3 0  9999
2 38296  98.7909 163.5411 0238522 197.6530 161.6229 13.77861768790700

Acompanhe CZ-4C DEB em tempo real com AllMySat

Download on the App Store